Location: La Bilong�re
(48.1297°N, 1.4584°W)
Time: 20:09:39
(UTC+00:00)

USA 306 - Pass Details

Date: 03 March 2021
Orbit: 564 x 577 km, 54.0° (Epoch: 13 April)

Event Time Altitude Azimuth Distance (km) Brightness Sun altitude
Rises 19:58:32 0° 289° (WNW) 2,773 7.9 -21.5°
Reaches altitude 10° 20:00:55 10° 297° (WNW) 1,873 6.6 -21.9°
Maximum altitude 20:04:55 38° 7° (N) 872 3.8 -22.5°
Enters shadow 20:05:20 37° 23° (NNE) 890 3.7 -22.6°
